Change the Weather History Date:

Tuesday, August 7, 2012

  Actual Average Record
Temperature  
Mean Temperature 84 °F -  
Max Temperature 96 °F 87 °F 102 °F (2011)
Min Temperature 73 °F 69 °F 60 °F (2004)
Cooling Degree Days 20    
Growing Degree Days 34 (Base 50)    
Moisture  
Dew Point 66 °F    
Average Humidity 58    
Maximum Humidity 89    
Minimum Humidity 27    
Precipitation  
Precipitation 0.00 in - - ()
Sea Level Pressure  
Sea Level Pressure 29.97 in    
Wind  
Wind Speed 3 mph (NE)    
Max Wind Speed 12 mph    
Max Gust Speed -    
Visibility 9 miles    
Events      
Averages and records for this station are not official NWS values.
T = Trace of Precipitation, MM = Missing Value Source: NWS Daily Summary

Daily Weather History Graph

Daily Weather History Graph

Search for Another Location

Airport or City:

Trip Planner

Search our weather history database for the weather conditions in past years. The results will help you decide how hot, cold, wet, or windy it might be!

Date:

Astronomy

Aug. 07, 2012 Rise Set
Actual Time 6:21 AM CDT 8:02 PM CDT
Civil Twilight 5:54 AM CDT 8:29 PM CDT
Nautical Twilight 5:21 AM CDT 9:01 PM CDT
Astronomical Twilight 4:46 AM CDT 9:36 PM CDT
Moon 11:01 PM CDT (8/7) 11:51 AM CDT (8/7)
Length of Visible Light 14h 35m
Length of Day
13h 40m
Waning Gibbous, 69% of the Moon is Illuminated
Aug 7
Waning Gibbous
Aug 9
Last Quarter
Aug 17
New
Aug 24
First Quarter
Aug 31
Full

Hourly Weather History & Observations

Time (CDT) Temp. Heat Index Dew Point Humidity Pressure Visibility Wind Dir Wind Speed Gust Speed Precip Events Conditions
12:15 AM 80.6 °F 84.6 °F 71.6 °F 74% 29.98 in 10.0 mi SSE 3.5 mph - N/A   Clear
12:35 AM 78.8 °F - 71.6 °F 78% 29.98 in 10.0 mi Calm Calm - N/A   Clear
12:55 AM 78.8 °F - 69.8 °F 74% 29.98 in 10.0 mi Calm Calm - N/A   Clear
1:15 AM 77.0 °F - 71.6 °F 83% 29.98 in 10.0 mi Calm Calm - N/A   Clear
1:35 AM 77.0 °F - 71.6 °F 83% 29.98 in 10.0 mi SSW 3.5 mph - N/A   Clear
1:55 AM 75.2 °F - 71.6 °F 89% 29.97 in 10.0 mi Calm Calm - N/A   Clear
2:15 AM 77.0 °F - 71.6 °F 83% 29.97 in 10.0 mi Calm Calm - N/A   Clear
2:35 AM 75.2 °F - 71.6 °F 89% 29.97 in 10.0 mi Calm Calm - N/A   Clear
2:55 AM 77.0 °F - 71.6 °F 83% 29.97 in 10.0 mi Calm Calm - N/A   Clear
3:15 AM 75.2 °F - 69.8 °F 83% 29.97 in 10.0 mi Calm Calm - N/A   Clear
3:35 AM 73.4 °F - 69.8 °F 88% 29.97 in 5.0 mi Calm Calm - N/A   Clear
3:55 AM 73.4 °F - 69.8 °F 88% 29.97 in 9.0 mi Calm Calm - N/A   Partly Cloudy
4:15 AM 73.4 °F - 69.8 °F 88% 29.97 in 7.0 mi Calm Calm - N/A   Mostly Cloudy
4:35 AM 75.2 °F - 69.8 °F 83% 29.97 in 7.0 mi West 3.5 mph - N/A   Mostly Cloudy
4:55 AM 73.4 °F - 69.8 °F 88% 29.97 in 7.0 mi WSW 3.5 mph - N/A   Partly Cloudy
5:15 AM 73.4 °F - 69.8 °F 88% 29.97 in 5.0 mi West 4.6 mph - N/A   Partly Cloudy
5:35 AM 73.4 °F - 69.8 °F 88% 29.98 in 5.0 mi North 4.6 mph - N/A   Clear
5:55 AM 73.4 °F - 69.8 °F 88% 29.98 in 5.0 mi North 4.6 mph - N/A   Partly Cloudy
6:15 AM 73.4 °F - 69.8 °F 88% 29.98 in 5.0 mi NNE 3.5 mph - N/A   Clear
6:35 AM 73.4 °F - 69.8 °F 88% 29.99 in 8.0 mi Calm Calm - N/A   Partly Cloudy
6:55 AM 73.4 °F - 69.8 °F 88% 29.99 in 7.0 mi Calm Calm - N/A   Scattered Clouds
7:15 AM 73.4 °F - 69.8 °F 88% 30.00 in 8.0 mi North 3.5 mph - N/A   Scattered Clouds
7:35 AM 75.2 °F - 71.6 °F 89% 30.00 in 9.0 mi North 3.5 mph - N/A   Scattered Clouds
7:55 AM 75.2 °F - 71.6 °F 89% 30.01 in 10.0 mi Calm Calm - N/A   Mostly Cloudy
8:15 AM 77.0 °F - 71.6 °F 83% 30.01 in 10.0 mi Calm Calm - N/A   Mostly Cloudy
8:35 AM 80.6 °F 84.6 °F 71.6 °F 74% 30.01 in 10.0 mi Calm Calm - N/A   Scattered Clouds
8:55 AM 82.4 °F 88.2 °F 73.4 °F 74% 30.01 in 10.0 mi NNE 4.6 mph - N/A   Partly Cloudy
9:15 AM 84.2 °F 88.4 °F 69.8 °F 62% 30.01 in 10.0 mi ENE 5.8 mph - N/A   Partly Cloudy
9:35 AM 86.0 °F 90.4 °F 69.8 °F 58% 30.01 in 10.0 mi NE 6.9 mph - N/A   Mostly Cloudy
9:55 AM 87.8 °F 90.4 °F 66.2 °F 49% 30.02 in 10.0 mi NE 9.2 mph - N/A   Scattered Clouds
10:15 AM 87.8 °F 91.4 °F 68.0 °F 52% 30.01 in 10.0 mi NE 6.9 mph - N/A   Clear
10:35 AM 89.6 °F 92.2 °F 66.2 °F 46% 30.02 in 10.0 mi ENE 6.9 mph - N/A   Clear
10:55 AM 89.6 °F 93.4 °F 68.0 °F 49% 30.02 in 10.0 mi NE 6.9 mph - N/A   Clear
11:15 AM 91.4 °F 94.0 °F 66.2 °F 43% 30.01 in 10.0 mi NE 3.5 mph - N/A   Clear
11:35 AM 93.2 °F 94.9 °F 64.4 °F 38% 30.01 in 10.0 mi NE 6.9 mph - N/A   Clear
11:55 AM 93.2 °F 94.1 °F 62.6 °F 36% 30.01 in 10.0 mi NNE 6.9 mph - N/A   Clear
12:15 PM 93.2 °F 93.3 °F 60.8 °F 34% 30.00 in 10.0 mi East 6.9 mph - N/A   Clear
12:35 PM 95.0 °F 95.2 °F 60.8 °F 32% 30.00 in 10.0 mi NE 6.9 mph - N/A   Clear
12:55 PM 95.0 °F 95.2 °F 60.8 °F 32% 29.99 in 10.0 mi NE 3.5 mph - N/A   Clear
1:15 PM 95.0 °F 95.2 °F 60.8 °F 32% 29.98 in 10.0 mi East 9.2 mph - N/A   Clear
1:35 PM 95.0 °F 95.2 °F 60.8 °F 32% 29.97 in 10.0 mi Calm Calm - N/A   Clear
1:55 PM 95.0 °F 96.0 °F 62.6 °F 34% 29.97 in 10.0 mi East 5.8 mph - N/A   Clear
2:15 PM 95.0 °F 96.0 °F 62.6 °F 34% 29.97 in 8.0 mi ENE 5.8 mph - N/A   Clear
2:35 PM 96.8 °F 98.0 °F 62.6 °F 32% 29.96 in 10.0 mi North 6.9 mph - N/A   Partly Cloudy
2:55 PM 96.8 °F 98.0 °F 62.6 °F 32% 29.95 in 10.0 mi NE 3.5 mph - N/A   Clear
3:15 PM 96.8 °F 98.0 °F 62.6 °F 32% 29.94 in 10.0 mi NNE 10.4 mph - N/A   Clear
3:35 PM 96.8 °F 98.0 °F 62.6 °F 32% 29.94 in 10.0 mi NNE 6.9 mph - N/A   Clear
3:55 PM 96.8 °F 97.1 °F 60.8 °F 30% 29.93 in 10.0 mi NNE 5.8 mph - N/A   Clear
4:15 PM 96.8 °F 97.1 °F 60.8 °F 30% 29.93 in 10.0 mi NNW 3.5 mph - N/A   Clear
4:35 PM 96.8 °F 97.1 °F 60.8 °F 30% 29.92 in 10.0 mi North 5.8 mph - N/A   Clear
4:55 PM 96.8 °F 97.1 °F 60.8 °F 30% 29.92 in 10.0 mi NNE 10.4 mph - N/A   Clear
5:15 PM 96.8 °F 95.8 °F 57.2 °F 27% 29.92 in 10.0 mi ENE 5.8 mph - N/A   Clear
5:35 PM 96.8 °F 97.1 °F 60.8 °F 30% 29.92 in 10.0 mi ENE 10.4 mph - N/A   Clear
5:55 PM 96.8 °F 97.1 °F 60.8 °F 30% 29.92 in 10.0 mi ENE 9.2 mph - N/A   Clear
6:15 PM 95.0 °F 95.2 °F 60.8 °F 32% 29.92 in 10.0 mi East 10.4 mph - N/A   Clear
6:35 PM 95.0 °F 94.4 °F 59.0 °F 30% 29.92 in 10.0 mi East 11.5 mph - N/A   Clear
7:15 PM 91.4 °F 91.4 °F 60.8 °F 36% 29.93 in 10.0 mi East 5.8 mph - N/A   Clear
7:55 PM 89.6 °F 89.5 °F 60.8 °F 38% 29.93 in 10.0 mi East 5.8 mph - N/A   Clear
8:15 PM 87.8 °F 88.5 °F 62.6 °F 43% 29.93 in 10.0 mi East 4.6 mph - N/A   Clear
8:35 PM 87.8 °F 87.6 °F 60.8 °F 40% 29.93 in 10.0 mi East 5.8 mph - N/A   Clear
8:55 PM 86.0 °F 86.1 °F 60.8 °F 43% 29.94 in 10.0 mi East 4.6 mph - N/A   Clear
9:15 PM 86.0 °F 86.6 °F 62.6 °F 45% 29.94 in 10.0 mi ESE 5.8 mph - N/A   Clear
9:35 PM 84.2 °F 85.6 °F 64.4 °F 51% 29.94 in 10.0 mi ESE 5.8 mph - N/A   Clear
9:55 PM 84.2 °F 85.6 °F 64.4 °F 51% 29.95 in 10.0 mi ESE 5.8 mph - N/A   Clear
10:15 PM 82.4 °F 83.9 °F 64.4 °F 54% 29.95 in 10.0 mi SSW 4.6 mph - N/A   Clear
10:35 PM 77.0 °F - 64.4 °F 65% 29.96 in 10.0 mi Calm Calm - N/A   Clear
10:55 PM 77.0 °F - 66.2 °F 69% 29.96 in 10.0 mi SW 4.6 mph - N/A   Clear
11:15 PM 75.2 °F - 64.4 °F 69% 29.97 in 10.0 mi WSW 3.5 mph - N/A   Clear
11:35 PM 77.0 °F - 64.4 °F 65% 29.97 in 10.0 mi Calm Calm - N/A   Clear
11:55 PM 78.8 °F - 64.4 °F 61% 29.97 in 10.0 mi Calm Calm - N/A   Clear